Regional Weather Roundup
Issued by NWS Cleveland, OH

Home | Current Version | Previous Version | Graphics & Text | Print | Product List | Glossary On
Versions: 1 2 3 4 5 6 7 8 9 10 11 12 13 14 15 16 17 18 19 20 21 22 23 24 25 26 27 28 29 30 31 32 33 34 35 36 37 38 39 40 41 42 43 44 45 46 47 48 49 50
000
ASUS41 KCLE 021110
RWRCLE
OHIO REGIONAL WEATHER ROUNDUP
NATIONAL WEATHER SERVICE CLEVELAND, OH
700 AM EDT WED SEP 02 2015

NOTE: "FAIR" INDICATES FEW OR NO CLOUDS BELOW 12,000 FEET WITH NO
SIGNIFICANT WEATHER AND/OR OBSTRUCTIONS TO VISIBILITY.

OHZ001>008-015>018-024>027-034-035-043-044-021200-
   NORTHWEST OHIO

CITY           SKY/WX    TMP DP  RH WIND       PRES   REMARKS
DEFIANCE       CLEAR     69  66  90 SW3       30.07S FOG
FINDLAY        MOCLDY    68  65  90 S5        30.08R
TOLEDO EXPRESS CLEAR     67  66  97 CALM      30.07R FOG
TOLEDO EXEC    CLEAR     69  65  86 SW6       30.08R
LIMA           CLEAR     68  65  90 CALM      30.10R
$$

OHZ009>014-019>023-028>033-038-089-021200-
   NORTHEAST OHIO

CITY           SKY/WX    TMP DP  RH WIND       PRES   REMARKS
CLE-HOPKINS    PTCLDY    69  65  86 SW5       30.10R
CLE-LAKEFRONT  CLEAR     73  65  75 S5        30.06S
CUY CO. ARPT   PTCLDY    73  68  83 S7        30.08
LORAIN-ELYRIA  CLEAR     66  64  93 SW6       30.09R FOG
ASHTABULA      PTCLDY    66  65  96 CALM      30.09R FOG
AKRON-CANTON   MOCLDY    70  66  87 SW5       30.11R
WOOSTER        FOG       62  62 100 CALM      30.12R VSB 1/4
MANSFIELD      CLEAR     67  65  93 SW6       30.12R
YOUNGSTOWN     PTCLDY    67  65  93 S3        30.10S FOG
$$

OHZ042-051>053-060>062-070>072-077>081-021200-
  SOUTHWEST OHIO

CITY           SKY/WX    TMP DP  RH WIND       PRES   REMARKS
CINC-COVINGTON CLEAR     65  64  97 S3        30.13R FOG
CINC-LUNKEN    FOG       65  65 100 CALM      30.13R VSB 3/4
HAMILTON       CLEAR     65  63  93 CALM      30.13R FOG
DAYTON         PTCLDY    69  67  93 SW6       30.13R
WRIGHT-PAT AFB CLEAR     64  64 100 S2        30.12R FOG
DAYTON GENERAL CLEAR     67  64  90 S5        30.12R FOG
WILMINGTON     CLEAR     64  62  93 CALM      30.13R FOG
$$

OHZ036-037-039>041-045>050-054>059-063>069-073>076-082>088-021200-
  CENTRAL AND SOUTHEAST OHIO

CITY           SKY/WX    TMP DP  RH WIND       PRES   REMARKS
COLUMBUS       PTCLDY    68  67  96 CALM      30.11R
OSU AIRPORT    CLEAR     68  65  90 CALM      30.11S
BOLTON FIELD   CLEAR     64  64 100 SW7       30.13R FOG
RICKENBACK AFB MOCLDY    65  65  99 CALM      30.11R FOG
NEWARK         FOG       65  63  93 CALM      30.11S VSB 1/2
MARION         CLEAR     65  62  90 S3        30.11R FOG
LANCASTER      PTCLDY    64  62  93 CALM      30.12S FOG
ZANESVILLE     PTCLDY    65  62  90 CALM      30.12R FOG
NEW PHILLY     MOCLDY    68  67  96 CALM      30.11R FOG
$$



USA.gov is the U.S. government's official web portal to all federal, state and local government web resources and services.